When you browse on this site, cookies collect data to enhance your experience and personalize the content and advertising you see.
Visit our Privacy Policy to learn more. By continuing to use the site, you agree to this use of cookies and data.
  • în România
  • Lista ţărilor
  • Pe 7 zile
  • Temperatura apei
  • Hartă satelitară
  • Meteo pe hartă
  • Widget-uri
  • user-avatar
    Intrare

    Meteo pe oră la Pervomayskiy

    Astăzi, 21 Martie, Joi

    Timp Temperatura Precipitaţii Vânt Presiune Umiditate
    00:00 +5°C° 0 mm 2 m/s 740 mmHg 84%
    01:00 +5°C° 0 mm 2 m/s 740 mmHg 85%
    02:00 +4°C° 0 mm 2 m/s 740 mmHg 86%
    03:00 +3°C° 0 mm 3 m/s 739 mmHg 85%
    04:00 +4°C° 0 mm 2 m/s 739 mmHg 85%
    05:00 +4°C° 0 mm 2 m/s 740 mmHg 85%
    06:00 +5°C° 0 mm 1 m/s 740 mmHg 86%
    07:00 +6°C° 0 mm 1 m/s 740 mmHg 79%
    08:00 +8°C° 0 mm 1 m/s 740 mmHg 72%
    09:00 +10°C° 0 mm 1 m/s 740 mmHg 64%
    10:00 +11°C° 0 mm 1 m/s 740 mmHg 60%
    11:00 +13°C° 0 mm 2 m/s 740 mmHg 56%
    12:00 +14°C° 0 mm 2 m/s 740 mmHg 52%
    13:00 +14°C° 0 mm 3 m/s 739 mmHg 50%
    14:00 +14°C° 0 mm 4 m/s 739 mmHg 48%
    15:00 +15°C° 0 mm 4 m/s 739 mmHg 46%
    16:00 +14°C° 0 mm 4 m/s 739 mmHg 50%
    17:00 +13°C° 0 mm 4 m/s 739 mmHg 53%
    18:00 +12°C° 0 mm 4 m/s 739 mmHg 56%
    19:00 +11°C° 0 mm 4 m/s 739 mmHg 61%
    20:00 +10°C° 0 mm 4 m/s 740 mmHg 65%
    21:00 +10°C° 0 mm 3 m/s 740 mmHg 70%
    22:00 +8°C° 0 mm 4 m/s 740 mmHg 71%
    23:00 +8°C° 0 mm 4 m/s 740 mmHg 72%

    Mâine, 22 Martie, Vineri

    Timp Temperatura Precipitaţii Vânt Presiune Umiditate
    00:00 +7°C° 0 mm 4 m/s 740 mmHg 73%
    01:00 +7°C° 0 mm 4 m/s 740 mmHg 74%
    02:00 +6°C° 0 mm 4 m/s 740 mmHg 75%
    03:00 +6°C° 0 mm 5 m/s 740 mmHg 76%
    04:00 +6°C° 0.1 mm 5 m/s 740 mmHg 77%
    05:00 +5°C° 0.1 mm 5 m/s 740 mmHg 78%
    06:00 +5°C° 0.1 mm 5 m/s 740 mmHg 79%
    07:00 +5°C° 0.2 mm 5 m/s 740 mmHg 75%
    08:00 +5°C° 0.2 mm 6 m/s 740 mmHg 70%
    09:00 +5°C° 0.2 mm 6 m/s 740 mmHg 65%
    10:00 +5°C° 0.3 mm 6 m/s 740 mmHg 63%
    11:00 +5°C° 0.3 mm 6 m/s 739 mmHg 61%
    12:00 +5°C° 0.3 mm 6 m/s 739 mmHg 60%
    13:00 +7°C° 0.3 mm 6 m/s 739 mmHg 56%
    14:00 +8°C° 0.3 mm 6 m/s 739 mmHg 53%
    15:00 +9°C° 0.3 mm 6 m/s 738 mmHg 50%
    16:00 +8°C° 0.1 mm 5 m/s 738 mmHg 52%
    17:00 +8°C° 0.1 mm 4 m/s 738 mmHg 55%
    18:00 +8°C° 0.1 mm 3 m/s 738 mmHg 57%
    19:00 +7°C° 0 mm 3 m/s 738 mmHg 60%
    20:00 +7°C° 0 mm 3 m/s 738 mmHg 64%
    21:00 +6°C° 0 mm 2 m/s 738 mmHg 67%
    22:00 +6°C° 0 mm 2 m/s 738 mmHg 70%
    23:00 +5°C° 0 mm 2 m/s 738 mmHg 73%

    Poimâine, 23 Martie, Sâmbătă

    Timp Temperatura Precipitaţii Vânt Presiune Umiditate
    00:00 +5°C° 0 mm 2 m/s 737 mmHg 76%
    01:00 +5°C° 0 mm 2 m/s 737 mmHg 78%
    02:00 +5°C° 0 mm 2 m/s 736 mmHg 79%
    03:00 +4°C° 0 mm 2 m/s 736 mmHg 81%
    04:00 +4°C° 0 mm 2 m/s 735 mmHg 80%
    05:00 +4°C° 0 mm 2 m/s 734 mmHg 79%
    06:00 +4°C° 0 mm 2 m/s 734 mmHg 79%
    07:00 +4°C° 0 mm 3 m/s 734 mmHg 74%
    08:00 +5°C° 0 mm 3 m/s 734 mmHg 70%
    09:00 +7°C° 0 mm 3 m/s 734 mmHg 66%
    10:00 +8°C° 0 mm 3 m/s 733 mmHg 62%
    11:00 +9°C° 0 mm 3 m/s 733 mmHg 58%
    12:00 +10°C° 0 mm 3 m/s 733 mmHg 54%
    13:00 +10°C° 0.3 mm 4 m/s 733 mmHg 56%
    14:00 +10°C° 0.3 mm 4 m/s 732 mmHg 59%
    15:00 +8°C° 0.3 mm 4 m/s 732 mmHg 61%
    16:00 +6°C° 2.9 mm 5 m/s 732 mmHg 70%
    17:00 +3°C° 2.9 mm 5 m/s 733 mmHg 78%
    18:00 +1°C° 2.9 mm 5 m/s 733 mmHg 87%
    19:00 +1°C° 1.2 mm 4 m/s 734 mmHg 90%
    20:00 0°C° 1.2 mm 4 m/s 734 mmHg 92%
    21:00 +1°C° 1.2 mm 3 m/s 735 mmHg 95%
    22:00 +2°C° 0.7 mm 2 m/s 735 mmHg 95%
    23:00 +2°C° 0.7 mm 2 m/s 735 mmHg 96%

    24 Martie, Duminică

    Timp Temperatura Precipitaţii Vânt Presiune Umiditate
    00:00 +2°C° 0.7 mm 1 m/s 735 mmHg 97%
    01:00 +2°C° 0.4 mm 1 m/s 736 mmHg 97%
    02:00 +2°C° 0.4 mm 1 m/s 736 mmHg 96%
    03:00 +2°C° 0.4 mm 1 m/s 736 mmHg 96%
    04:00 +2°C° 0.1 mm 1 m/s 736 mmHg 95%
    05:00 +2°C° 0.1 mm 1 m/s 737 mmHg 95%
    06:00 +2°C° 0.1 mm 1 m/s 737 mmHg 95%
    07:00 +2°C° 0.1 mm 1 m/s 737 mmHg 95%
    08:00 +1°C° 0.1 mm 2 m/s 737 mmHg 94%
    09:00 +2°C° 0.1 mm 2 m/s 737 mmHg 94%
    10:00 +2°C° 0.1 mm 2 m/s 737 mmHg 90%
    11:00 +3°C° 0.1 mm 2 m/s 737 mmHg 86%
    12:00 +3°C° 0.1 mm 2 m/s 737 mmHg 82%
    13:00 +4°C° 0 mm 2 m/s 737 mmHg 76%
    14:00 +4°C° 0 mm 2 m/s 737 mmHg 70%
    15:00 +5°C° 0 mm 2 m/s 736 mmHg 63%
    16:00 +5°C° 0 mm 2 m/s 737 mmHg 66%
    17:00 +4°C° 0 mm 2 m/s 737 mmHg 68%
    18:00 +4°C° 0 mm 2 m/s 737 mmHg 70%
    19:00 +4°C° 0 mm 2 m/s 737 mmHg 71%
    20:00 +3°C° 0 mm 2 m/s 738 mmHg 72%
    21:00 +3°C° 0 mm 2 m/s 738 mmHg 73%
    22:00 +1°C° 0 mm 3 m/s 738 mmHg 74%
    23:00 0°C° 0 mm 3 m/s 738 mmHg 74%

    25 Martie, Luni

    Timp Temperatura Precipitaţii Vânt Presiune Umiditate
    00:00 0°C° 0 mm 3 m/s 738 mmHg 74%
    01:00 0°C° 0 mm 3 m/s 738 mmHg 74%
    02:00 -1°C° 0 mm 2 m/s 738 mmHg 74%
    03:00 -1°C° 0 mm 2 m/s 738 mmHg 74%
    04:00 -1°C° 0 mm 2 m/s 738 mmHg 74%
    05:00 -1°C° 0 mm 2 m/s 738 mmHg 73%
    06:00 -1°C° 0 mm 2 m/s 739 mmHg 72%
    07:00 +1°C° 0 mm 2 m/s 738 mmHg 67%
    08:00 +3°C° 0 mm 2 m/s 738 mmHg 62%
    09:00 +4°C° 0 mm 2 m/s 738 mmHg 57%
    10:00 +4°C° 0 mm 3 m/s 738 mmHg 54%
    11:00 +5°C° 0 mm 3 m/s 738 mmHg 51%
    12:00 +7°C° 0 mm 3 m/s 737 mmHg 48%
    13:00 +8°C° 0 mm 3 m/s 737 mmHg 47%
    14:00 +8°C° 0 mm 3 m/s 737 mmHg 47%
    15:00 +8°C° 0 mm 4 m/s 737 mmHg 46%
    16:00 +8°C° 0 mm 3 m/s 737 mmHg 51%
    17:00 +8°C° 0 mm 3 m/s 737 mmHg 56%
    18:00 +7°C° 0 mm 2 m/s 737 mmHg 62%
    19:00 +6°C° 0 mm 2 m/s 737 mmHg 66%
    20:00 +6°C° 0 mm 1 m/s 738 mmHg 70%
    21:00 +4°C° 0 mm 0 m/s 738 mmHg 74%
    22:00 +5°C° 0 mm 1 m/s 738 mmHg 74%
    23:00 +5°C° 0 mm 1 m/s 737 mmHg 75%

    26 Martie, Marţi

    Timp Temperatura Precipitaţii Vânt Presiune Umiditate
    00:00 +4°C° 0 mm 1 m/s 737 mmHg 76%
    01:00 +4°C° 0 mm 1 m/s 737 mmHg 76%
    02:00 +4°C° 0 mm 1 m/s 737 mmHg 77%
    03:00 +3°C° 0 mm 1 m/s 736 mmHg 77%
    04:00 +3°C° 0 mm 1 m/s 736 mmHg 77%
    05:00 +3°C° 0 mm 1 m/s 736 mmHg 77%
    06:00 +3°C° 0 mm 1 m/s 736 mmHg 77%
    07:00 +3°C° 0 mm 2 m/s 736 mmHg 71%
    08:00 +4°C° 0 mm 3 m/s 735 mmHg 64%
    09:00 +5°C° 0 mm 5 m/s 735 mmHg 57%
    10:00 +7°C° 0 mm 5 m/s 735 mmHg 54%
    11:00 +8°C° 0 mm 5 m/s 734 mmHg 52%
    12:00 +9°C° 0 mm 6 m/s 734 mmHg 49%
    13:00 +9°C° 0 mm 6 m/s 733 mmHg 49%
    14:00 +10°C° 0 mm 5 m/s 733 mmHg 48%
    15:00 +12°C° 0 mm 5 m/s 733 mmHg 48%
    16:00 +10°C° 0 mm 5 m/s 733 mmHg 51%
    17:00 +10°C° 0 mm 4 m/s 733 mmHg 54%
    18:00 +8°C° 0 mm 4 m/s 733 mmHg 57%
    19:00 +8°C° 0 mm 4 m/s 734 mmHg 60%
    20:00 +7°C° 0 mm 4 m/s 734 mmHg 64%
    21:00 +6°C° 0 mm 4 m/s 734 mmHg 67%
    22:00 +5°C° 0 mm 3 m/s 734 mmHg 69%
    23:00 +4°C° 0 mm 3 m/s 734 mmHg 71%
    Arată mai mult